星链-34142 (STARLINK-34142)

导读

STARLINK-34142是美国SpaceX星链(Starlink)项目的低轨互联网通信卫星,于2025年5月13日由猎鹰9号火箭从肯尼迪航天中心发射,本次任务共送入28颗星链卫星。它属于SpaceX批量生产的星链卫星,采用平板设计搭载太阳电池阵,配备氪工质霍尔推进器与自主避撞系统,使用Ku/Ka频段和光学星间链路,旨在为全球提供普惠宽带互联网接入服务,预期使用寿命约5-7年,退役后将主动离轨在大气层焚毁。

基本信息
目录编号:
63957
目录名称:
STARLINK-34142
国际标识:
2025-099F
轨道中心:
EARTH
卫星名称:
星链-34142
卫星全名:
星链-34142 (STARLINK-34142)
卫星状态:
在轨 (已飞行397 天)
发射日期:
2025-05-13 UTC
国别 :
美国 (US)
星等 :
--
轨道信息
数据来源 国际轨道数据
星历时间: 2026-06-13T03:47:56+0800
1天前
查看轨道信息
半长轴: 6861.054km
偏心率: 0.0001346
轨道倾角: 43.010°
近地点辐角 116.403°
升交点赤经 359.162°
平近点角 243.697°
近地点: 481.993km
远地点: 483.841km
周期: 94.264分钟
每日圈数: 15.276244
详细信息
固有亮度:
5
最大亮度:
2.5
卫星平台:
Starlink V1.0
覆盖范围:
全球
运营商:
太空探索技术公司
运营商所在国:
美国
制造商(研发单位):
太空探索技术公司
制造商所在国:
美国
使用方式:
暂无
卫星简介
Starlink 计划是 SpaceX 推出的全球卫星互联网项目,通过发射低轨道卫星,为全球尤其是偏远地区提供高速、低延迟的互联网服务。自 2019 年起,Starlink 已部署数千颗卫星,旨在缩小全球数字鸿沟,推动互联网普及。该项目还为军事、航空等行业提供通信支持,带来广泛经济效益。
2D轨道图
3D轨道图
轨道高度分析图
轨道倾角分析图
轨道综合分析图
查看轨道综合分析图